Location: Obersdorf
(47.4079°N, 10.2781°E)
Time: 02:38:53
(UTC+01:00)

XW-2C - Pass Details

Date: 03 December 2021
Orbit: 503 x 523 km, 97.5° (Epoch: 16 January)

Event Time Altitude Azimuth Distance (km) Brightness Sun altitude
Rises 17:16:28 0° 162° (SSE) 2,610 ? -7.8°
Reaches altitude 10° 17:18:32 10° 162° (SSE) 1,732 ? -8.1°
Maximum altitude 17:22:16 79° 76° (ENE) 532 ? -8.7°
Drops below altitude 10° 17:26:04 10° 350° (N) 1,760 ? -9.3°
Sets 17:28:11 0° 349° (NNW) 2,656 ? -9.6°
